KAZEOSAT 2

Last updated on Sun Apr 12 2026 00:02:35 GMT+0000 (Coordinated Universal Time)

1 40010U 14033A 26101.54148441 .00000703 00000+0 87429-4 0 9990 2 40010 97.5468 304.6566 0008577 168.8739 191.2668 14.85394180639065
UTC large
Height (km)
Speed (km/s)
/
Latitude / Longitude
Inclination (degrees)
Orbital Period (minutes)
Azimuth
Elevation
Range (km)
Doppler Factor

Next 0 passes for location: London (51.5072 / 0.1276)

Sorry there are no passes over London.
KAZEOSAT 2